Location: Kuppenheim
(48.8299°N, 8.2568°E)
Time: 10:20:40
(UTC+00:00)

Cosmos 2221 - Pass Details

Date: 20 June 2021
Orbit: 591 x 616 km, 82.5° (Epoch: 27 July)

Event Time Altitude Azimuth Distance (km) Brightness Sun altitude
Rises 00:19:16 0° 353° (N) 2,865 7.4 -16.9°
Reaches altitude 10° 00:21:32 10° 357° (N) 1,953 6.3 -16.8°
Maximum altitude 00:25:47 59° 77° (ENE) 694 2.9 -16.6°
Enters shadow 00:28:22 22° 151° (SSE) 1,302 3.8 -16.5°
